Location: Clinton NY
(43.0598°N, 75.3602°W)
Time: 15:21:31
(UTC-04:00)

Iridium 11 - Visible Passes

Search period start: 18 April 2015 00:00
Search period end: 28 April 2015 00:00
Orbit: 776 x 779 km, 86.4° (Epoch: 18 April)

Date Brightness Start Highest point End Pass type
(mag) Time Alt. Az. Time Alt. Az. Time Alt. Az.
18 Apr 7.8 01:20:51 17° ENE 01:20:51 17° ENE 01:23:05 10° NE visible
18 Apr 6.4 03:01:20 40° NNW 03:01:20 40° NNW 03:04:57 10° N visible
19 Apr 6.4 02:27:53 46° N 02:27:53 46° N 02:31:30 10° N visible
19 Apr 7.7 04:08:21 12° WNW 04:08:21 12° WNW 04:09:39 10° NW visible
20 Apr 6.9 01:54:26 35° NE 01:54:26 35° NE 01:57:47 10° NNE visible
20 Apr 7.2 03:34:53 20° WNW 03:34:53 20° WNW 03:37:45 10° NNW visible
21 Apr 7.5 01:20:57 23° NE 01:20:57 23° NE 01:23:45 10° NNE visible
21 Apr 6.7 03:01:25 32° NW 03:01:25 32° NW 03:04:51 10° NNW visible
22 Apr 7.9 00:47:29 14° ENE 00:47:29 14° ENE 00:49:04 10° NE visible
22 Apr 6.4 02:27:57 44° NNW 02:27:57 44° NNW 02:31:35 10° N visible
23 Apr 6.6 01:54:28 43° NNE 01:54:28 43° NNE 01:58:02 10° N visible
23 Apr 7.5 03:34:56 15° WNW 03:34:56 15° WNW 03:37:05 10° NW visible
24 Apr 7.1 01:20:59 30° NE 01:20:59 30° NE 01:24:12 10° NNE visible
24 Apr 7.1 03:01:27 24° NW 03:01:27 24° NW 03:04:37 10° NNW visible
25 Apr 7.6 00:47:30 19° ENE 00:47:30 19° ENE 00:49:58 10° NNE visible
25 Apr 6.6 02:27:58 37° NW 02:27:58 37° NW 02:31:33 10° N visible
26 Apr 8.1 00:14:01 11° ENE 00:14:01 11° ENE 00:14:35 10° ENE visible
26 Apr 6.4 01:54:28 47° N 01:54:28 47° N 01:58:09 10° N visible
26 Apr 7.8 03:34:56 10° WNW 03:34:56 10° WNW 03:35:22 10° WNW visible
27 Apr 6.7 01:20:58 39° NE 01:20:58 39° NE 01:24:29 10° NNE visible
27 Apr 7.4 03:01:26 18° WNW 03:01:26 18° WNW 03:04:10 10° NNW visible
